This is the latest recevied weather packets stored in our database for station/object PY2XH-13. If no packets are shown the sender has not sent any weather packets the latest 10 day(s).
| Time | Temp. | Humidity | Pressure | Rain* | Wind** | Luminosity | Snow |
|---|---|---|---|---|---|---|---|
| 1788538564 | 23.33° C | 38% | 1027.4 hPa | - | - | - | - |
| 1788536764 | 23.33° C | 43% | 1027.7 hPa | - | - | - | - |
| 1788534965 | 23.33° C | 42% | 1028.5 hPa | - | - | - | - |
| 1788533164 | 22.78° C | 45% | 1029.1 hPa | - | - | - | - |
| 1788531364 | 22.78° C | 45% | 1029.6 hPa | - | - | - | - |
| 1788529564 | 22.78° C | 47% | 1030.2 hPa | - | - | - | - |
| 1788527764 | 22.22° C | 50% | 1030.6 hPa | - | - | - | - |
| 1788525964 | 22.22° C | 51% | 1030.4 hPa | - | - | - | - |
| 1788524164 | 21.67° C | 52% | 1030.5 hPa | - | - | - | - |
| 1788522364 | 21.11° C | 53% | 1030.6 hPa | - | - | - | - |
| 1788520564 | 21.67° C | 55% | 1030.3 hPa | - | - | - | - |
| 1788518765 | 21.11° C | 57% | 1029.6 hPa | - | - | - | - |
| 1788516965 | 21.11° C | 55% | 1029.1 hPa | - | - | - | - |
| 1788515165 | 20.56° C | 56% | 1028.5 hPa | - | - | - | - |
| 1788513364 | 21.11° C | 57% | 1028.6 hPa | - | - | - | - |
| 1788511564 | 21.11° C | 55% | 1028.2 hPa | - | - | - | - |
| 1788509765 | 21.11° C | 55% | 1028.3 hPa | - | - | - | - |
| 1788507965 | 21.11° C | 54% | 1028.1 hPa | - | - | - | - |
| 1788506165 | 21.11° C | 55% | 1027.8 hPa | - | - | - | - |
| 1788504364 | 21.11° C | 55% | 1027.8 hPa | - | - | - | - |
| 1788502564 | 21.11° C | 55% | 1028 hPa | - | - | - | - |
| 1788500764 | 21.67° C | 55% | 1027.8 hPa | - | - | - | - |
| 1788498964 | 21.67° C | 54% | 1027.9 hPa | - | - | - | - |
| 1788497164 | 21.67° C | 54% | 1028.1 hPa | - | - | - | - |
| 1788495364 | 21.67° C | 55% | 1028.3 hPa | - | - | - | - |
* Rain since midnight (hover to see other rain measurements)
** Current wind speed in m/s (hover to see current wind gust speed)